Simultaneous Nadir Overpasses (SNOs) Predictions

Prediction of SNOs between GOES-15 and METOP-B Satellite Orbit:

Table of predicted SNOs for the next 14.0 days since TLE Epoch: 12/8/2024
Index Date Time (GOES-15) GOES-15 Lat,Lon METOP-B Lat,Lon Distance(km) Time Diff (sec)
1 12/08/2024 04:58:11 -0.14, 61.43 -0.80, 64.55 354.41 80
2 12/09/2024 17:17:01 0.13, 61.50 -0.20, 59.97 173.84 80
3 12/10/2024 16:53:34 0.14, 61.50 0.89, 64.99 397.46 80
4 12/12/2024 05:12:17 -0.13, 61.41 0.07, 60.44 109.82 80
5 12/13/2024 04:54:10 -0.13, 61.40 -1.03, 65.46 462.15 80
6 12/14/2024 17:13:00 0.12, 61.48 -0.01, 60.90 66.20 80
7 12/17/2024 05:08:14 -0.11, 61.41 -0.10, 61.37 4.49 80
8 12/19/2024 17:06:17 0.10, 61.48 0.19, 61.82 39.81 80
9 12/21/2024 05:24:58 -0.09, 61.42 0.85, 57.29 471.04 80
